User: anonymous
Location: Stamford Observatory
(41.1241°N, 73.5498°W)
Time: 04:43:04
(UTC-04:00)
Language:

IRS-P3 - Orbit

View from above orbital plane
View from above orbital plane
View from above satellite
View from above satellite

Ground track
Ground track

The orbit data is extracted from the following two-line orbital elements,

1 23827U 96017A   14292.80482178  .00000248  00000-0  13111-3 0  1346
2 23827 098.6336 229.2855 0002785 346.8823 065.9602 14.22241814964329
Epoch (UTC): 19 October 2014 19:18:56
Eccentricity: 0.0002785
inclination: 98.6336°
perigee height: 816 km
apogee height: 820 km
right ascension of ascending node: 229.2855°
argument of perigee: 346.8823°
revolutions per day: 14.22241814
mean anomaly at epoch: 65.9602°
orbit number at epoch: 96432

The dashed part of the orbit path shows where the satellite is in the earth's shadow,  

DLR